Waarnemingen

Advertentie
Mijn weer
Freiburg, Duitsland (10803): temperatuur & dauwpunt: 19.09.2017 06:00:00 - 25.09.2017 06:00:00 (CEST)Freiburg, Duitsland (10803): temperatuur 5cm & temperatuur -5cm: 19.09.2017 06:00:00 - 25.09.2017 06:00:00 (CEST)Freiburg, Duitsland (10803): temperatuur -20cm & temperatuur -100cm: 19.09.2017 06:00:00 - 25.09.2017 06:00:00 (CEST)Freiburg, Duitsland (10803): windsnelheid & windstoten: 19.09.2017 06:00:00 - 25.09.2017 06:00:00 (CEST)Freiburg, Duitsland (10803): windrichting: 19.09.2017 06:00:00 - 25.09.2017 06:00:00 (CEST)Freiburg, Duitsland (10803): luchtdruk: 19.09.2017 06:00:00 - 25.09.2017 06:00:00 (CEST)Freiburg, Duitsland (10803): zicht: 19.09.2017 06:00:00 - 25.09.2017 06:00:00 (CEST)Freiburg, Duitsland (10803): Zonneschijnduur: 19.09.2017 06:00:00 - 25.09.2017 06:00:00 (CEST)Freiburg, Duitsland (10803): neerslag: 19.09.2017 06:00:00 - 25.09.2017 06:00:00 (CEST)
Datum & Tijd tt [°C] td [°C] tt 5cm [°C] tt -5cm [°C] tt -20cm [°C] tt -100cm [°C] ff [km/u] ff [kn] fx [km/u] fx [kn] dd ppp [hPa] vv [km] sd [min] rr [mm]
25.09.2017 06:00:00 9,8 9,7 10,0 11,7 14,3 16,0 0 0 4 2 N 1020,3 0,1 0 0,0
25.09.2017 05:00:00 10,2 10,2 10,2 11,5 14,5 16,0 2 1 6 3 W 1020,4 0,1 0 0,0
25.09.2017 04:00:00 9,3 9,2 9,3 10,6 14,8 16,0 3 1 4 2 NW 1020,7 0,1 0 0,0
25.09.2017 03:00:00 7,7 7,5 4,7 9,7 15,2 16,0 0 0 4 2 N 1021,0 0,8 0 0,0
25.09.2017 02:00:00 7,6 7,2 4,8 10,3 15,6 16,0 2 1 5 3 WNW 1021,3 0,3 0 0,0
25.09.2017 01:00:00 9,2 8,0 6,2 11,0 16,0 16,0 0 0 7 4 N 1021,3 17 0 0,0
25.09.2017 00:00:00 9,5 8,6 6,0 11,9 16,4 16,0 3 1 8 4 O 1021,4 16 0 0,0
24.09.2017 23:00:00 10,3 9,4 7,9 12,9 16,8 16,0 3 2 7 4 NNW 1021,5 11 0 0,0
24.09.2017 22:00:00 11,2 10,3 9,2 13,7 17,3 16,0 5 3 8 4 NO 1021,4 12 0 0,0
24.09.2017 21:00:00 12,6 10,7 10,5 15,0 17,7 16,0 0 0 4 2 N 1021,2 20 0 0,0
24.09.2017 20:00:00 12,7 9,1 9,2 16,1 18,0 16,0 0 0 10 5 N 1020,9 24 0 0,0
24.09.2017 19:00:00 17,2 9,8 16,2 18,8 18,1 16,0 7 4 14 7 NNW 1020,2 36 41 0,0
24.09.2017 18:00:00 19,3 8,7 22,4 21,4 17,9 16,0 9 5 16 8 NW 1019,8 35 60 0,0
24.09.2017 17:00:00 19,5 7,5 24,0 23,1 17,5 16,0 9 5 17 9 NNW 1020,0 26 60 0,0
24.09.2017 16:00:00 19,2 9,9 25,2 23,9 16,9 16,0 12 7 20 11 NNW 1020,1 19 60 0,0
24.09.2017 15:00:00 19,1 11,8 25,4 24,4 16,2 16,0 10 5 18 10 NNW 1020,2 17 60 0,0
24.09.2017 14:00:00 18,2 10,0 26,0 23,4 15,5 16,0 8 5 16 8 NNW 1020,6 18 60 0,0
24.09.2017 13:00:00 17,6 11,5 23,6 21,9 14,7 16,0 8 5 13 7 NW 1021,0 14 60 0,0
24.09.2017 12:00:00 16,2 11,4 22,1 19,7 14,1 16,0 5 3 17 9 WNW 1021,5 10 60 0,0
24.09.2017 11:00:00 14,7 10,8 19,6 17,0 13,7 16,0 5 3 8 4 NNW 1021,9 10 60 0,0
24.09.2017 10:00:00 12,6 10,4 16,4 13,6 13,7 16,0 4 2 6 3 NNW 1022,1 6 52 0,0
24.09.2017 09:00:00 10,2 9,6 10,7 10,7 13,8 16,0 3 1 6 4 N 1022,2 4,4 12 0,0
24.09.2017 08:00:00 7,9 7,6 5,9 9,5 14,1 16,0 2 1 4 2 WZW 1021,9 0,2 0 0,0
24.09.2017 07:00:00 8,3 8,1 5,9 9,8 14,4 16,0 3 1 4 2 Z 1021,6 0,5 0 0,0
24.09.2017 06:00:00 8,8 8,7 6,0 10,3 14,7 16,0 0 0 5 3 N 1021,4 0,1 0 0,0
24.09.2017 05:00:00 8,6 8,2 6,2 10,8 15,0 16,0 0 0 4 2 N 1021,1 0,1 0 0,0
24.09.2017 04:00:00 9,9 9,4 8,1 11,6 15,3 16,0 2 1 6 4 W 1020,9 - 0 0,0
24.09.2017 03:00:00 11,0 9,9 8,9 12,2 15,6 16,0 4 2 6 4 N 1020,9 7 0 0,0
24.09.2017 02:00:00 11,7 10,6 9,8 12,9 15,9 16,0 3 2 10 5 W 1021,0 10 0 0,0
24.09.2017 01:00:00 11,8 10,5 9,8 13,3 16,2 16,0 3 2 9 5 W 1020,7 12 0 0,0
24.09.2017 00:00:00 14,1 11,7 12,8 14,4 16,4 16,0 5 3 13 7 NNO 1020,7 14 0 0,0
23.09.2017 23:00:00 13,9 12,2 12,9 14,8 16,6 16,0 5 3 12 6 N 1020,6 16 0 0,0
23.09.2017 22:00:00 14,9 12,2 13,4 15,4 16,9 16,0 4 2 6 3 N 1020,7 18 0 0,0
23.09.2017 21:00:00 14,9 11,6 13,0 15,7 17,2 16,0 3 2 6 3 NNW 1020,6 26 0 0,0
23.09.2017 20:00:00 16,0 11,6 13,1 16,6 17,4 16,0 3 1 6 3 N 1020,1 26 0 0,0
23.09.2017 19:00:00 17,3 11,1 15,1 18,2 17,5 16,0 6 3 13 7 NNW 1019,9 36 2 0,0
23.09.2017 18:00:00 19,5 9,9 20,3 20,7 17,3 16,0 10 5 18 10 NW 1019,8 47 57 0,0
23.09.2017 17:00:00 20,5 10,4 24,4 22,2 16,9 16,0 10 6 20 11 NNW 1019,7 47 60 0,0
23.09.2017 16:00:00 20,4 9,6 25,6 23,2 16,3 16,0 10 5 22 12 NNW 1020,2 33 60 0,0
23.09.2017 15:00:00 20,4 10,9 26,3 23,2 15,6 16,0 11 6 20 11 NNW 1020,6 39 60 0,0
23.09.2017 14:00:00 19,4 11,6 25,3 22,8 14,8 16,0 8 4 16 9 NW 1021,0 29 60 0,0
23.09.2017 13:00:00 18,2 11,5 23,3 21,4 14,0 16,0 9 5 16 9 NW 1021,6 28 60 0,0
23.09.2017 12:00:00 17,1 11,2 22,8 19,4 13,4 16,0 6 4 13 7 NW 1022,4 25 60 0,0
23.09.2017 11:00:00 15,4 10,6 20,8 16,3 13,0 16,0 5 3 7 4 NNW 1022,9 26 57 0,0
23.09.2017 10:00:00 12,9 9,9 14,7 12,8 12,8 16,0 4 2 6 3 ZW 1023,3 27 29 0,0
23.09.2017 09:00:00 11,7 9,6 13,4 11,0 12,9 16,0 3 2 6 3 N 1023,4 24 55 0,0
23.09.2017 08:00:00 8,5 8,2 6,6 9,1 13,1 16,0 3 2 5 3 ZW 1023,4 12 0 0,0
23.09.2017 07:00:00 8,4 7,6 6,9 9,4 13,3 16,0 0 0 6 3 N 1023,5 22 0 0,0
23.09.2017 06:00:00 8,3 7,7 6,2 9,4 13,5 16,0 0 0 3 2 N 1023,4 27 0 0,0
23.09.2017 05:00:00 8,0 7,5 6,0 9,5 13,8 16,0 3 1 4 2 W 1023,5 16 0 0,0
23.09.2017 04:00:00 8,2 7,7 6,7 9,6 14,1 16,0 0 0 5 3 N 1023,7 20 0 0,0
23.09.2017 03:00:00 7,3 6,6 6,0 9,7 14,4 16,0 3 2 5 3 NNW 1023,6 13 0 0,0
23.09.2017 02:00:00 7,9 7,1 5,3 10,1 14,8 16,0 0 0 5 3 N 1023,6 31 0 0,0
23.09.2017 01:00:00 8,2 7,6 5,9 10,7 15,2 16,1 0 0 7 4 N 1023,4 24 0 0,0
23.09.2017 00:00:00 9,0 7,9 6,1 11,3 15,5 16,1 2 1 6 4 N 1023,2 24 0 0,0
22.09.2017 23:00:00 10,0 9,4 7,4 12,0 16,0 16,1 0 0 4 2 N 1023,1 20 0 0,0
22.09.2017 22:00:00 10,1 8,7 7,5 13,0 16,4 16,1 2 1 5 3 NNW 1022,7 32 0 0,0
22.09.2017 21:00:00 12,7 10,5 9,9 14,3 16,7 16,1 4 2 5 3 N 1022,0 50 0 0,0
22.09.2017 20:00:00 13,9 10,7 11,4 16,1 16,9 16,1 0 0 6 3 N 1021,1 52 0 0,0
22.09.2017 19:00:00 19,3 8,9 17,3 18,4 16,9 16,1 4 2 8 4 NO 1020,2 70 34 0,0
22.09.2017 18:00:00 20,4 7,6 20,0 19,8 16,7 16,1 4 2 9 5 NNO 1020,0 70 19 0,0
22.09.2017 17:00:00 20,6 7,2 22,4 21,7 16,3 16,1 5 3 14 7 NW 1019,9 70 49 0,0
22.09.2017 16:00:00 20,7 7,9 22,6 22,7 15,7 16,1 8 4 16 8 W 1020,0 70 60 0,0
22.09.2017 15:00:00 20,6 9,0 24,3 23,2 14,9 16,1 5 3 16 9 WZW 1020,1 46 60 0,0
22.09.2017 14:00:00 19,5 9,4 23,5 22,9 14,0 16,1 6 4 14 8 W 1020,4 45 60 0,0
22.09.2017 13:00:00 18,3 9,6 22,2 21,3 13,1 16,1 4 2 11 6 NW 1020,7 34 60 0,0
22.09.2017 12:00:00 16,6 9,2 21,8 18,9 12,4 16,1 3 2 8 4 WZW 1021,1 34 59 0,0
22.09.2017 11:00:00 14,6 8,9 19,0 15,8 11,9 16,1 4 2 7 4 NNW 1021,3 38 60 0,0
22.09.2017 10:00:00 12,4 8,7 14,9 12,1 11,7 16,1 3 1 6 3 N 1021,4 27 60 0,0
22.09.2017 09:00:00 10,1 8,6 10,7 8,7 11,8 16,1 0 0 5 3 N 1021,3 23 56 0,0
22.09.2017 08:00:00 4,9 4,6 2,9 6,5 12,1 16,1 0 0 4 2 N 1021,7 17 0 0,0
22.09.2017 07:00:00 5,0 4,7 2,0 6,6 12,4 16,1 3 1 4 2 ZZW 1021,4 21 0 0,0
22.09.2017 06:00:00 5,1 4,4 2,0 7,0 12,7 16,1 0 0 4 2 N 1021,1 39 0 0,0
22.09.2017 05:00:00 4,8 4,4 2,6 7,4 13,0 16,1 0 0 3 2 N 1021,2 13 0 0,0
22.09.2017 04:00:00 5,5 5,2 2,5 7,9 13,4 16,2 0 0 2 1 N 1021,0 15 0 0,0
22.09.2017 03:00:00 5,7 5,2 3,0 8,4 13,8 16,2 0 0 4 2 N 1021,3 30 0 0,0
22.09.2017 02:00:00 6,4 6,3 3,7 9,0 14,2 16,2 0 0 4 2 N 1021,2 0,3 0 0,0
22.09.2017 01:00:00 7,3 6,9 4,4 9,7 14,6 16,2 0 0 4 2 N 1020,8 19 0 0,0
22.09.2017 00:00:00 7,9 7,6 5,2 10,5 15,0 16,2 0 0 5 3 N 1020,6 0,2 0 0,0
21.09.2017 23:00:00 8,8 8,0 6,2 11,3 15,4 16,2 0 0 5 3 N 1020,6 16 0 0,0
21.09.2017 22:00:00 10,2 9,1 7,0 12,1 15,8 16,2 4 2 6 3 NNW 1020,3 17 0 0,0
21.09.2017 21:00:00 10,9 9,8 7,9 13,2 16,1 16,2 4 2 6 3 ZZO 1020,1 17 0 0,0
21.09.2017 20:00:00 12,3 10,2 9,0 15,0 16,3 16,2 3 1 7 4 N 1019,6 30 0 0,0
21.09.2017 19:00:00 15,7 10,8 14,7 17,2 16,4 16,2 5 3 9 5 NNW 1018,8 37 37 0,0
21.09.2017 18:00:00 17,7 10,8 18,8 19,3 16,1 16,2 6 3 12 6 NW 1018,5 41 60 0,0
21.09.2017 17:00:00 18,4 10,2 22,3 21,1 15,7 16,2 6 4 14 7 NW 1018,5 46 60 0,0
21.09.2017 16:00:00 17,9 8,8 23,9 21,7 15,0 16,2 5 3 16 9 NW 1019,1 38 60 0,0
21.09.2017 15:00:00 17,4 9,7 22,4 21,5 14,3 16,2 8 4 17 9 NW 1019,6 34 60 0,0
21.09.2017 14:00:00 16,5 9,2 22,1 21,2 13,5 16,2 8 4 19 10 NW 1020,2 44 60 0,0
21.09.2017 13:00:00 15,0 8,3 18,9 19,7 12,6 16,2 5 3 13 7 W 1020,9 38 60 0,0
21.09.2017 12:00:00 13,4 6,9 19,5 17,5 11,9 16,2 7 4 12 6 NW 1021,5 29 60 0,0
21.09.2017 11:00:00 11,8 7,3 17,9 14,5 11,3 16,2 5 3 8 5 N 1022,1 23 60 0,0
21.09.2017 10:00:00 9,9 7,1 14,2 11,0 11,1 16,2 5 3 8 5 NNW 1022,5 19 60 0,0
21.09.2017 09:00:00 7,9 6,7 10,7 7,4 11,3 16,2 3 2 4 2 N 1022,5 10 56 0,0
21.09.2017 08:00:00 4,1 3,8 1,9 5,6 11,6 16,3 4 2 5 3 Z 1023,0 10 0 0,0
21.09.2017 07:00:00 2,8 2,3 0,4 5,7 11,9 16,3 2 1 5 3 N 1023,0 8 0 0,0
21.09.2017 06:00:00 3,5 3,0 1,0 6,1 12,3 16,3 0 0 4 2 N 1022,9 17 0 0,0
21.09.2017 05:00:00 3,7 3,3 1,1 6,6 12,6 16,3 2 1 4 2 NNW 1023,1 14 0 0,0
21.09.2017 04:00:00 4,4 4,2 1,6 7,1 13,0 16,3 0 0 8 4 N 1023,2 7 0 0,0
21.09.2017 03:00:00 4,9 4,4 2,8 7,6 13,4 16,3 3 2 10 5 NNO 1023,4 8 0 0,0
21.09.2017 02:00:00 5,0 4,5 3,4 8,0 13,8 16,3 7 4 10 6 WZW 1023,4 10 0 0,0
21.09.2017 01:00:00 5,9 5,8 2,8 8,6 14,2 16,3 4 2 5 3 NNW 1023,2 5 0 0,0
21.09.2017 00:00:00 5,7 5,4 3,4 9,3 14,7 16,3 3 2 5 3 N 1023,6 7 0 0,0
20.09.2017 23:00:00 7,0 6,5 3,8 10,1 15,1 16,3 3 1 5 3 NNW 1023,4 8 0 0,0
20.09.2017 22:00:00 8,6 8,5 6,1 11,0 15,5 16,3 4 2 9 5 N 1023,2 8 0 0,0
20.09.2017 21:00:00 9,3 8,4 6,4 12,3 15,9 16,3 3 2 5 3 ZO 1023,1 15 0 0,0
20.09.2017 20:00:00 11,1 9,0 7,6 14,0 16,2 16,3 3 1 11 6 NO 1022,6 20 0 0,0
20.09.2017 19:00:00 13,6 9,3 13,5 15,8 16,3 16,3 8 4 13 7 NNW 1022,1 28 25 0,0
20.09.2017 18:00:00 15,2 7,5 18,2 17,5 16,3 16,3 7 4 22 12 N 1021,8 30 23 0,0
20.09.2017 17:00:00 15,3 8,2 16,9 18,1 16,2 16,3 11 6 20 11 N 1022,1 31 3 0,0
20.09.2017 16:00:00 16,1 6,7 18,4 19,7 15,8 16,3 9 5 15 8 N 1022,0 66 2 0,0
20.09.2017 15:00:00 15,8 6,8 19,9 21,9 15,1 16,3 9 5 19 11 N 1022,2 51 58 0,0
20.09.2017 14:00:00 15,7 6,4 22,5 21,3 14,3 16,3 7 4 14 7 NNW 1022,6 41 56 0,0
20.09.2017 13:00:00 15,1 7,2 20,0 20,7 13,5 16,4 7 4 11 6 W 1023,2 27 60 0,0
20.09.2017 12:00:00 14,1 7,4 19,1 18,5 12,9 16,4 4 2 9 5 WZW 1023,4 29 60 0,0
20.09.2017 11:00:00 13,0 9,5 17,7 13,5 12,7 16,4 2 1 9 5 ONO 1023,7 28 25 0,0
20.09.2017 10:00:00 10,3 9,1 11,3 11,2 12,7 16,4 3 1 8 4 NNW 1024,1 18 9 0,0
20.09.2017 09:00:00 8,8 8,3 9,7 9,9 12,8 16,4 4 2 6 4 NNW 1023,8 8 40 0,0
20.09.2017 08:00:00 6,3 6,0 5,0 8,9 13,1 16,4 0 0 5 3 N 1023,8 0,3 0 0,0
20.09.2017 07:00:00 7,7 7,5 6,0 9,7 13,3 16,4 0 0 7 4 N 1023,4 0,3 0 0,0
20.09.2017 06:00:00 7,7 7,6 6,6 10,0 13,5 16,4 0 0 5 3 N 1023,3 1,3 0 0,0
20.09.2017 05:00:00 9,0 8,8 9,1 10,8 13,7 16,4 0 0 5 3 N 1023,0 13 0 0,0
20.09.2017 04:00:00 8,6 8,4 8,0 10,8 13,9 16,4 0 0 6 3 N 1022,7 1,1 0 0,0
20.09.2017 03:00:00 9,5 9,2 7,7 11,5 14,0 16,4 2 1 3 2 NW 1022,5 0,3 0 0,3
20.09.2017 02:00:00 10,1 9,4 9,8 11,8 14,2 16,4 0 0 8 4 N 1022,7 8 0 0,1
20.09.2017 01:00:00 10,1 9,5 9,5 12,0 14,4 16,4 5 3 6 4 ZZW 1022,5 24 0 0,0
20.09.2017 00:00:00 10,2 9,7 10,0 12,3 14,6 16,4 0 0 5 3 N 1022,4 22 0 0,0
19.09.2017 23:00:00 10,6 9,7 9,9 12,5 14,8 16,5 3 2 11 6 ZZO 1022,3 45 0 0,0
19.09.2017 22:00:00 11,1 9,7 10,6 12,9 15,0 16,5 10 5 15 8 Z 1021,8 53 0 0,0
19.09.2017 21:00:00 10,9 10,4 10,7 13,5 15,2 16,5 6 3 9 5 ZW 1021,7 12 0 2,7
19.09.2017 20:00:00 11,8 9,8 11,1 14,3 15,3 16,5 8 4 13 7 ZW 1020,6 12 0 0,0
19.09.2017 19:00:00 12,7 9,6 12,0 15,6 15,3 16,5 5 3 6 4 ZZO 1019,8 70 12 0,2
19.09.2017 18:00:00 13,2 8,5 12,2 16,6 15,1 16,5 2 1 9 5 WZW 1019,6 70 14 0,4
19.09.2017 17:00:00 14,1 8,7 16,9 17,2 14,8 16,5 4 2 8 5 WZW 1019,1 70 26 0,0
19.09.2017 16:00:00 13,2 8,2 17,2 17,1 14,6 16,5 4 2 31 17 NO 1019,0 62 15 1,7
19.09.2017 15:00:00 14,4 7,7 17,4 18,7 14,1 16,5 4 2 8 5 WNW 1018,7 70 23 0,0
19.09.2017 14:00:00 13,2 7,7 15,5 17,3 13,7 16,5 5 3 11 6 NNO 1018,9 70 5 0,0
19.09.2017 13:00:00 13,2 8,6 16,2 16,9 13,2 16,5 5 3 11 6 N 1019,1 70 4 0,0
19.09.2017 12:00:00 12,7 8,3 13,7 14,8 13,0 16,5 4 2 9 5 ZW 1019,0 65 0 0,2
19.09.2017 11:00:00 11,3 8,7 11,5 12,7 12,9 16,5 5 3 12 7 W 1019,5 42 0 0,0
19.09.2017 10:00:00 10,8 8,3 11,1 12,1 12,9 16,5 6 4 12 7 W 1019,1 52 0 0,0
19.09.2017 09:00:00 10,1 8,2 9,6 10,9 12,9 16,6 8 4 10 5 Z 1019,0 16 0 0,5
19.09.2017 08:00:00 9,5 8,0 8,9 10,5 13,0 16,6 5 3 12 7 WZW 1018,9 46 0 0,0
19.09.2017 07:00:00 9,3 8,5 8,4 10,5 13,1 16,6 0 0 5 3 N 1018,5 53 0 0,0
19.09.2017 06:00:00 9,4 8,5 8,0 10,8 13,2 16,6 0 0 8 4 N 1018,3 69 0 0,0

tt = temperatuur
td = dauwpunt
tt 5cm = temperatuur 5cm
tt -5cm = temperatuur -5cm
tt -20cm = temperatuur -20cm
tt -100cm = temperatuur -100cm
ff = windsnelheid
fx = windstoten
dd = windrichting
ppp = luchtdruk
vv = zicht
sd = Zonneschijnduur
rr = neerslag

Weerstations in de omgeving